Year,Month,Day,Hour,Minute,Value (Times are PST for temperature in C)
2022,07,27,00,00,23.80
2022,07,27,00,01,23.70
2022,07,27,00,02,23.70
2022,07,27,00,03,23.70
2022,07,27,00,04,23.70
2022,07,27,00,05,23.60
2022,07,27,00,06,23.60
2022,07,27,00,07,23.60
2022,07,27,00,08,23.50
2022,07,27,00,09,23.50
2022,07,27,00,10,23.50
2022,07,27,00,11,23.40
2022,07,27,00,12,23.40
2022,07,27,00,13,23.30
2022,07,27,00,14,23.30
2022,07,27,00,15,23.20
2022,07,27,00,16,23.20
2022,07,27,00,17,23.10
2022,07,27,00,18,23.10
2022,07,27,00,19,23.00
2022,07,27,00,20,23.00
2022,07,27,00,21,22.90
2022,07,27,00,22,22.90
2022,07,27,00,23,22.80
2022,07,27,00,24,22.80
2022,07,27,00,25,22.80
2022,07,27,00,26,22.80
2022,07,27,00,27,22.80
2022,07,27,00,28,22.80
2022,07,27,00,29,22.70
2022,07,27,00,30,22.70
2022,07,27,00,31,22.70
2022,07,27,00,32,22.70
2022,07,27,00,33,22.70
2022,07,27,00,34,22.70
2022,07,27,00,35,22.70
2022,07,27,00,36,22.70
2022,07,27,00,37,22.60
2022,07,27,00,38,22.60
2022,07,27,00,39,22.60
2022,07,27,00,40,22.60
2022,07,27,00,41,22.60
2022,07,27,00,42,22.60
2022,07,27,00,43,22.60
2022,07,27,00,44,22.60
2022,07,27,00,45,22.60
2022,07,27,00,46,22.60
2022,07,27,00,47,22.50
2022,07,27,00,48,22.50
2022,07,27,00,49,22.50
2022,07,27,00,50,22.50
2022,07,27,00,51,22.50
2022,07,27,00,52,22.50
2022,07,27,00,53,22.40
2022,07,27,00,54,22.40
2022,07,27,00,55,22.40
2022,07,27,00,56,22.40
2022,07,27,00,57,22.40
2022,07,27,00,58,22.30
2022,07,27,00,59,22.30
2022,07,27,01,00,22.30
2022,07,27,01,01,22.30
2022,07,27,01,02,22.30
2022,07,27,01,03,22.30
2022,07,27,01,04,22.30
2022,07,27,01,05,22.30
2022,07,27,01,06,22.30
2022,07,27,01,07,22.20
2022,07,27,01,08,22.20
2022,07,27,01,09,22.20
2022,07,27,01,10,22.20
2022,07,27,01,11,22.20
2022,07,27,01,12,22.20
2022,07,27,01,13,22.20
2022,07,27,01,14,22.20
2022,07,27,01,15,22.20
2022,07,27,01,16,22.20
2022,07,27,01,17,22.20
2022,07,27,01,18,22.20
2022,07,27,01,19,22.20
2022,07,27,01,20,22.20
2022,07,27,01,21,22.20
2022,07,27,01,22,22.20
2022,07,27,01,23,22.20
2022,07,27,01,24,22.20
2022,07,27,01,25,22.20
2022,07,27,01,26,22.10
2022,07,27,01,27,22.10
2022,07,27,01,28,22.10
2022,07,27,01,29,22.10
2022,07,27,01,30,22.10
2022,07,27,01,31,22.10
2022,07,27,01,32,22.10
2022,07,27,01,33,22.10
2022,07,27,01,34,22.10
2022,07,27,01,35,22.10
2022,07,27,01,36,22.10
2022,07,27,01,37,22.10
2022,07,27,01,38,22.00
2022,07,27,01,39,22.00
2022,07,27,01,40,22.00
2022,07,27,01,41,22.00
2022,07,27,01,42,22.00
2022,07,27,01,43,22.00
2022,07,27,01,44,22.00
2022,07,27,01,45,22.00
2022,07,27,01,46,21.90
2022,07,27,01,47,21.90
2022,07,27,01,48,21.90
2022,07,27,01,49,21.90
2022,07,27,01,50,21.90
2022,07,27,01,51,21.90
2022,07,27,01,52,21.90
2022,07,27,01,53,21.90
2022,07,27,01,54,21.90
2022,07,27,01,55,21.80
2022,07,27,01,56,21.80
2022,07,27,01,57,21.80
2022,07,27,01,58,21.80
2022,07,27,01,59,21.80
2022,07,27,02,00,21.80
2022,07,27,02,01,21.80
2022,07,27,02,02,21.80
2022,07,27,02,03,21.80
2022,07,27,02,04,21.80
2022,07,27,02,05,21.70
2022,07,27,02,06,21.70
2022,07,27,02,07,21.70
2022,07,27,02,08,21.70
2022,07,27,02,09,21.70
2022,07,27,02,10,21.70
2022,07,27,02,11,21.70
2022,07,27,02,12,21.70
2022,07,27,02,13,21.60
2022,07,27,02,14,21.60
2022,07,27,02,15,21.60
2022,07,27,02,16,21.60
2022,07,27,02,17,21.60
2022,07,27,02,18,21.60
2022,07,27,02,19,21.50
2022,07,27,02,20,21.50
2022,07,27,02,21,21.40
2022,07,27,02,22,21.40
2022,07,27,02,23,21.40
2022,07,27,02,24,21.30
2022,07,27,02,25,21.30
2022,07,27,02,26,21.30
2022,07,27,02,27,21.30
2022,07,27,02,28,21.30
2022,07,27,02,29,21.30
2022,07,27,02,30,21.30
2022,07,27,02,31,21.20
2022,07,27,02,32,21.20
2022,07,27,02,33,21.20
2022,07,27,02,34,21.20
2022,07,27,02,35,21.20
2022,07,27,02,36,21.20
2022,07,27,02,37,21.10
2022,07,27,02,38,21.10
2022,07,27,02,39,21.10
2022,07,27,02,40,21.10
2022,07,27,02,41,21.10
2022,07,27,02,42,21.10
2022,07,27,02,43,21.10
2022,07,27,02,44,21.10
2022,07,27,02,45,21.00
2022,07,27,02,46,21.00
2022,07,27,02,47,21.00
2022,07,27,02,48,21.00
2022,07,27,02,49,20.90
2022,07,27,02,50,20.90
2022,07,27,02,51,20.90
2022,07,27,02,52,20.90
2022,07,27,02,53,20.90
2022,07,27,02,54,20.80
2022,07,27,02,55,20.80
2022,07,27,02,56,20.80
2022,07,27,02,57,20.80
2022,07,27,02,58,20.80
2022,07,27,02,59,20.80
2022,07,27,03,00,20.80
2022,07,27,03,01,20.80
2022,07,27,03,02,20.80
2022,07,27,03,03,20.70
2022,07,27,03,04,20.70
2022,07,27,03,05,20.70
2022,07,27,03,06,20.70
2022,07,27,03,07,20.70
2022,07,27,03,08,20.70
2022,07,27,03,09,20.70
2022,07,27,03,10,20.70
2022,07,27,03,11,20.70
2022,07,27,03,12,20.70
2022,07,27,03,13,20.70
2022,07,27,03,14,20.60
2022,07,27,03,15,20.60
2022,07,27,03,16,20.60
2022,07,27,03,17,20.60
2022,07,27,03,18,20.60
2022,07,27,03,19,20.60
2022,07,27,03,20,20.50
2022,07,27,03,21,20.50
2022,07,27,03,22,20.50
2022,07,27,03,23,20.50
2022,07,27,03,24,20.50
2022,07,27,03,25,20.40
2022,07,27,03,26,20.40
2022,07,27,03,27,20.40
2022,07,27,03,28,20.40
2022,07,27,03,29,20.40
2022,07,27,03,30,20.40
2022,07,27,03,31,20.30
2022,07,27,03,32,20.30
2022,07,27,03,33,20.30
2022,07,27,03,34,20.30
2022,07,27,03,35,20.30
2022,07,27,03,36,20.30
2022,07,27,03,37,20.30
2022,07,27,03,38,20.30
2022,07,27,03,39,20.20
2022,07,27,03,40,20.20
2022,07,27,03,41,20.20
2022,07,27,03,42,20.20
2022,07,27,03,43,20.20
2022,07,27,03,44,20.20
2022,07,27,03,45,20.20
2022,07,27,03,46,20.20
2022,07,27,03,47,20.20
2022,07,27,03,48,20.20
2022,07,27,03,49,20.10
2022,07,27,03,50,20.10
2022,07,27,03,51,20.10
2022,07,27,03,52,20.10
2022,07,27,03,53,20.10
2022,07,27,03,54,20.10
2022,07,27,03,55,20.10
2022,07,27,03,56,20.10
2022,07,27,03,57,20.10
2022,07,27,03,58,20.10
2022,07,27,03,59,20.00
2022,07,27,04,00,20.00
2022,07,27,04,01,20.00
2022,07,27,04,02,20.00
2022,07,27,04,03,20.00
2022,07,27,04,04,20.00
2022,07,27,04,05,19.90
2022,07,27,04,06,19.90
2022,07,27,04,07,19.90
2022,07,27,04,08,19.90
2022,07,27,04,09,19.90
2022,07,27,04,10,19.90
2022,07,27,04,11,19.90
2022,07,27,04,12,19.90
2022,07,27,04,13,19.90
2022,07,27,04,14,19.80
2022,07,27,04,15,19.80
2022,07,27,04,16,19.80
2022,07,27,04,17,19.80
2022,07,27,04,18,19.80
2022,07,27,04,19,19.80
2022,07,27,04,20,19.80
2022,07,27,04,21,19.80
2022,07,27,04,22,19.70
2022,07,27,04,23,19.70
2022,07,27,04,24,19.70
2022,07,27,04,25,19.70
2022,07,27,04,26,19.70
2022,07,27,04,27,19.60
2022,07,27,04,28,19.60
2022,07,27,04,29,19.60
2022,07,27,04,30,19.60
2022,07,27,04,31,19.50
2022,07,27,04,32,19.50
2022,07,27,04,33,19.50
2022,07,27,04,34,19.50
2022,07,27,04,35,19.50
2022,07,27,04,36,19.50
2022,07,27,04,37,19.40
2022,07,27,04,38,19.40
2022,07,27,04,39,19.40
2022,07,27,04,40,19.40
2022,07,27,04,41,19.40
2022,07,27,04,42,19.40
2022,07,27,04,43,19.40
2022,07,27,04,44,19.40
2022,07,27,04,45,19.30
2022,07,27,04,46,19.30
2022,07,27,04,47,19.30
2022,07,27,04,48,19.30
2022,07,27,04,49,19.30
2022,07,27,04,50,19.30
2022,07,27,04,51,19.20
2022,07,27,04,52,19.20
2022,07,27,04,53,19.10
2022,07,27,04,54,19.10
2022,07,27,04,55,19.10
2022,07,27,04,56,19.00
2022,07,27,04,57,19.00
2022,07,27,04,58,18.90
2022,07,27,04,59,18.90
2022,07,27,05,00,18.90
2022,07,27,05,01,18.80
2022,07,27,05,02,18.80
2022,07,27,05,03,18.80
2022,07,27,05,04,18.70
2022,07,27,05,05,18.70
2022,07,27,05,06,18.60
2022,07,27,05,07,18.60
2022,07,27,05,08,18.50
2022,07,27,05,09,18.40
2022,07,27,05,10,18.30
2022,07,27,05,11,18.20
2022,07,27,05,12,18.10
2022,07,27,05,13,18.00
2022,07,27,05,14,18.00
2022,07,27,05,15,17.90
2022,07,27,05,16,17.80
2022,07,27,05,17,17.80
2022,07,27,05,18,17.70
2022,07,27,05,19,17.70
2022,07,27,05,20,17.60
2022,07,27,05,21,17.60
2022,07,27,05,22,17.60
2022,07,27,05,23,17.50
2022,07,27,05,24,17.50
2022,07,27,05,25,17.40
2022,07,27,05,26,17.40
2022,07,27,05,27,17.40
2022,07,27,05,28,17.30
2022,07,27,05,29,17.30
2022,07,27,05,30,17.30
2022,07,27,05,31,17.30
2022,07,27,05,32,17.30
2022,07,27,05,33,17.20
2022,07,27,05,34,17.20
2022,07,27,05,35,17.20
2022,07,27,05,36,17.20
2022,07,27,05,37,17.20
2022,07,27,05,38,17.10
2022,07,27,05,39,17.10
2022,07,27,05,40,17.10
2022,07,27,05,41,17.10
2022,07,27,05,42,17.10
2022,07,27,05,43,17.00
2022,07,27,05,44,17.00
2022,07,27,05,45,17.00
2022,07,27,05,46,17.00
2022,07,27,05,47,16.90
2022,07,27,05,48,16.90
2022,07,27,05,49,16.90
2022,07,27,05,50,16.90
2022,07,27,05,51,16.90
2022,07,27,05,52,16.90
2022,07,27,05,53,16.80
2022,07,27,05,54,16.80
2022,07,27,05,55,16.80
2022,07,27,05,56,16.80
2022,07,27,05,57,16.80
2022,07,27,05,58,16.80
2022,07,27,05,59,16.80
2022,07,27,06,00,16.70
2022,07,27,06,01,16.70
2022,07,27,06,02,16.70
2022,07,27,06,03,16.70
2022,07,27,06,04,16.70
2022,07,27,06,05,16.70
2022,07,27,06,06,16.70
2022,07,27,06,07,16.70
2022,07,27,06,08,16.80
2022,07,27,06,09,16.80
2022,07,27,06,10,16.80
2022,07,27,06,11,16.80
2022,07,27,06,12,16.90
2022,07,27,06,13,16.90
2022,07,27,06,14,16.90
2022,07,27,06,15,16.90
2022,07,27,06,16,17.00
2022,07,27,06,17,17.00
2022,07,27,06,18,17.00
2022,07,27,06,19,17.10
2022,07,27,06,20,17.10
2022,07,27,06,21,17.10
2022,07,27,06,22,17.00
2022,07,27,06,23,17.00
2022,07,27,06,24,17.00
2022,07,27,06,25,17.00
2022,07,27,06,26,16.90
2022,07,27,06,27,16.90
2022,07,27,06,28,16.90
2022,07,27,06,29,16.90
2022,07,27,06,30,16.80
2022,07,27,06,31,16.80
2022,07,27,06,32,16.80
2022,07,27,06,33,16.80
2022,07,27,06,34,16.80
2022,07,27,06,35,16.70
2022,07,27,06,36,16.70
2022,07,27,06,37,16.70
2022,07,27,06,38,16.70
2022,07,27,06,39,16.70
2022,07,27,06,40,16.70
2022,07,27,06,41,16.70
2022,07,27,06,42,16.70
2022,07,27,06,43,16.60
2022,07,27,06,44,16.70
2022,07,27,06,45,16.70
2022,07,27,06,46,16.70
2022,07,27,06,47,16.70
2022,07,27,06,48,16.70
2022,07,27,06,49,16.70
2022,07,27,06,50,16.70
2022,07,27,06,51,16.70
2022,07,27,06,52,16.80
2022,07,27,06,53,16.80
2022,07,27,06,54,16.80
2022,07,27,06,55,16.80
2022,07,27,06,56,16.90
2022,07,27,06,57,16.90
2022,07,27,06,58,16.90
2022,07,27,06,59,17.00
2022,07,27,07,00,17.00
2022,07,27,07,01,17.10
2022,07,27,07,02,17.10
2022,07,27,07,03,17.20
2022,07,27,07,04,17.20
2022,07,27,07,05,17.20
2022,07,27,07,06,17.30
2022,07,27,07,07,17.30
2022,07,27,07,08,17.40
2022,07,27,07,09,17.40
2022,07,27,07,10,17.40
2022,07,27,07,11,17.50
2022,07,27,07,12,17.60
2022,07,27,07,13,17.70
2022,07,27,07,14,17.70
2022,07,27,07,15,17.70
2022,07,27,07,16,17.80
2022,07,27,07,17,17.80
2022,07,27,07,18,17.90
2022,07,27,07,19,17.90
2022,07,27,07,20,18.00
2022,07,27,07,21,18.00
2022,07,27,07,22,18.10
2022,07,27,07,23,18.10
2022,07,27,07,24,18.20
2022,07,27,07,25,18.20
2022,07,27,07,26,18.30
2022,07,27,07,27,18.30
2022,07,27,07,28,18.30
2022,07,27,07,29,18.40
2022,07,27,07,30,18.40
2022,07,27,07,31,18.50
2022,07,27,07,32,18.50
2022,07,27,07,33,18.60
2022,07,27,07,34,18.60
2022,07,27,07,35,18.70
2022,07,27,07,36,18.70
2022,07,27,07,37,18.80
2022,07,27,07,38,18.80
2022,07,27,07,39,18.90
2022,07,27,07,40,18.90
2022,07,27,07,41,19.00
2022,07,27,07,42,19.10
2022,07,27,07,43,19.10
2022,07,27,07,44,19.20
2022,07,27,07,45,19.30
2022,07,27,07,46,19.40
2022,07,27,07,47,19.50
2022,07,27,07,48,19.60
2022,07,27,07,49,19.80
2022,07,27,07,50,19.90
2022,07,27,07,51,20.00
2022,07,27,07,52,20.10
2022,07,27,07,53,20.20
2022,07,27,07,54,20.30
2022,07,27,07,55,20.40
2022,07,27,07,56,20.50
2022,07,27,07,57,20.60
2022,07,27,07,58,20.70
2022,07,27,07,59,20.70
2022,07,27,08,00,20.80
2022,07,27,08,01,20.80
2022,07,27,08,02,20.80
2022,07,27,08,03,20.80
2022,07,27,08,04,20.80
2022,07,27,08,05,20.80
2022,07,27,08,06,20.80
2022,07,27,08,07,20.80
2022,07,27,08,08,20.70
2022,07,27,08,09,20.70
2022,07,27,08,10,20.70
2022,07,27,08,11,20.70
2022,07,27,08,12,20.70
2022,07,27,08,13,20.70
2022,07,27,08,14,20.70
2022,07,27,08,15,20.70
2022,07,27,08,16,20.70
2022,07,27,08,17,20.70
2022,07,27,08,18,20.80
2022,07,27,08,19,20.80
2022,07,27,08,20,20.80
2022,07,27,08,21,20.80
2022,07,27,08,22,20.80
2022,07,27,08,23,20.80
2022,07,27,08,24,20.80
2022,07,27,08,25,20.80
2022,07,27,08,26,20.90
2022,07,27,08,27,20.90
2022,07,27,08,28,20.90
2022,07,27,08,29,20.90
2022,07,27,08,30,20.90
2022,07,27,08,31,21.00
2022,07,27,08,32,21.00
2022,07,27,08,33,21.00
2022,07,27,08,34,21.10
2022,07,27,08,35,21.10
2022,07,27,08,36,21.10
2022,07,27,08,37,21.20
2022,07,27,08,38,21.20
2022,07,27,08,39,21.20
2022,07,27,08,40,21.20
2022,07,27,08,41,21.30
2022,07,27,08,42,21.30
2022,07,27,08,43,21.40
2022,07,27,08,44,21.40
2022,07,27,08,45,21.50
2022,07,27,08,46,21.50
2022,07,27,08,47,21.60
2022,07,27,08,48,21.60
2022,07,27,08,49,21.70
2022,07,27,08,50,21.70
2022,07,27,08,51,21.80
2022,07,27,08,52,21.80
2022,07,27,08,53,21.80
2022,07,27,08,54,21.90
2022,07,27,08,55,21.90
2022,07,27,08,56,21.90
2022,07,27,08,57,22.00
2022,07,27,08,58,22.00
2022,07,27,08,59,22.10
2022,07,27,09,00,22.10
2022,07,27,09,01,22.20
2022,07,27,09,02,22.20
2022,07,27,09,03,22.20
2022,07,27,09,04,22.30
2022,07,27,09,05,22.30
2022,07,27,09,06,22.30
2022,07,27,09,07,22.30
2022,07,27,09,08,22.30
2022,07,27,09,09,22.30
2022,07,27,09,10,22.30
2022,07,27,09,11,22.30
2022,07,27,09,12,22.30
2022,07,27,09,13,22.30
2022,07,27,09,14,22.30
2022,07,27,09,15,22.30
2022,07,27,09,16,22.30
2022,07,27,09,17,22.40
2022,07,27,09,18,22.40
2022,07,27,09,19,22.40
2022,07,27,09,20,22.40
2022,07,27,09,21,22.50
2022,07,27,09,22,22.50
2022,07,27,09,23,22.50
2022,07,27,09,24,22.50
2022,07,27,09,25,22.50
2022,07,27,09,26,22.50
2022,07,27,09,27,22.50
2022,07,27,09,28,22.50
2022,07,27,09,29,22.50
2022,07,27,09,30,22.60
2022,07,27,09,31,22.60
2022,07,27,09,32,22.60
2022,07,27,09,33,22.60
2022,07,27,09,34,22.70
2022,07,27,09,35,22.70
2022,07,27,09,36,22.80
2022,07,27,09,37,22.80
2022,07,27,09,38,22.80
2022,07,27,09,39,22.90
2022,07,27,09,40,22.90
2022,07,27,09,41,22.90
2022,07,27,09,42,22.90
2022,07,27,09,43,22.90
2022,07,27,09,44,23.00
2022,07,27,09,45,23.00
2022,07,27,09,46,23.00
2022,07,27,09,47,22.90
2022,07,27,09,48,22.90
2022,07,27,09,49,22.90
2022,07,27,09,50,22.90
2022,07,27,09,51,22.90
2022,07,27,09,52,22.80
2022,07,27,09,53,22.80
2022,07,27,09,54,22.70
2022,07,27,09,55,22.60
2022,07,27,09,56,22.60
2022,07,27,09,57,22.60
2022,07,27,09,58,22.50
2022,07,27,09,59,22.40
2022,07,27,10,00,22.40
2022,07,27,10,01,22.40
2022,07,27,10,02,22.30
2022,07,27,10,03,22.30
2022,07,27,10,04,22.20
2022,07,27,10,05,22.10
2022,07,27,10,06,22.10
2022,07,27,10,07,22.00
2022,07,27,10,08,21.90
2022,07,27,10,09,21.90
2022,07,27,10,10,21.90
2022,07,27,10,11,21.90
2022,07,27,10,12,21.90
2022,07,27,10,13,22.00
2022,07,27,10,14,22.10
2022,07,27,10,15,22.20
2022,07,27,10,16,22.30
2022,07,27,10,17,22.50
2022,07,27,10,18,22.60
2022,07,27,10,19,22.80
2022,07,27,10,20,22.90
2022,07,27,10,21,23.00
2022,07,27,10,22,23.20
2022,07,27,10,23,23.30
2022,07,27,10,24,23.40
2022,07,27,10,25,23.50
2022,07,27,10,26,23.60
2022,07,27,10,27,23.60
2022,07,27,10,28,23.70
2022,07,27,10,29,23.80
2022,07,27,10,30,23.90
2022,07,27,10,31,23.90
2022,07,27,10,32,24.00
2022,07,27,10,33,24.10
2022,07,27,10,34,24.10
2022,07,27,10,35,24.20
2022,07,27,10,36,24.30
2022,07,27,10,37,24.40
2022,07,27,10,38,24.40
2022,07,27,10,39,24.50
2022,07,27,10,40,24.60
2022,07,27,10,41,24.70
2022,07,27,10,42,24.80
2022,07,27,10,43,24.80
2022,07,27,10,44,24.80
2022,07,27,10,45,24.80
2022,07,27,10,46,24.80
2022,07,27,10,47,24.80
2022,07,27,10,48,24.70
2022,07,27,10,49,24.70
2022,07,27,10,50,24.80
2022,07,27,10,51,24.80
2022,07,27,10,52,24.80
2022,07,27,10,53,24.80
2022,07,27,10,54,24.90
2022,07,27,10,55,24.90
2022,07,27,10,56,25.00
2022,07,27,10,57,25.00
2022,07,27,10,58,25.10
2022,07,27,10,59,25.10
2022,07,27,11,00,25.20
2022,07,27,11,01,25.20
2022,07,27,11,02,25.20
2022,07,27,11,03,25.30
2022,07,27,11,04,25.40
2022,07,27,11,05,25.40
2022,07,27,11,06,25.50
2022,07,27,11,07,25.50
2022,07,27,11,08,25.60
2022,07,27,11,09,25.70
2022,07,27,11,10,25.70
2022,07,27,11,11,25.80
2022,07,27,11,12,25.90
2022,07,27,11,13,25.90
2022,07,27,11,14,26.00
2022,07,27,11,15,26.00
2022,07,27,11,16,26.00
2022,07,27,11,17,26.00
2022,07,27,11,18,26.00
2022,07,27,11,19,26.10
2022,07,27,11,20,26.10
2022,07,27,11,21,26.10
2022,07,27,11,22,26.20
2022,07,27,11,23,26.20
2022,07,27,11,24,26.30
2022,07,27,11,25,26.30
2022,07,27,11,26,26.40
2022,07,27,11,27,26.40
2022,07,27,11,28,26.50
2022,07,27,11,29,26.50
2022,07,27,11,30,26.60
2022,07,27,11,31,26.50
2022,07,27,11,32,26.50
2022,07,27,11,33,26.50
2022,07,27,11,34,26.50
2022,07,27,11,35,26.60
2022,07,27,11,36,26.60
2022,07,27,11,37,26.60
2022,07,27,11,38,26.70
2022,07,27,11,39,26.70
2022,07,27,11,40,26.80
2022,07,27,11,41,26.80
2022,07,27,11,42,26.80
2022,07,27,11,43,26.70
2022,07,27,11,44,26.70
2022,07,27,11,45,26.70
2022,07,27,11,46,26.70
2022,07,27,11,47,26.80
2022,07,27,11,48,27.00
2022,07,27,11,49,27.10
2022,07,27,11,50,27.30
2022,07,27,11,51,27.30
2022,07,27,11,52,27.40
2022,07,27,11,53,27.50
2022,07,27,11,54,27.50
2022,07,27,11,55,27.60
2022,07,27,11,56,27.70
2022,07,27,11,57,27.70
2022,07,27,11,58,27.80
2022,07,27,11,59,27.80
2022,07,27,12,00,27.80
2022,07,27,12,01,27.80
2022,07,27,12,02,27.80
2022,07,27,12,03,27.80
2022,07,27,12,04,27.80
2022,07,27,12,05,27.80
2022,07,27,12,06,27.80
2022,07,27,12,07,27.80
2022,07,27,12,08,27.80
2022,07,27,12,09,27.90
2022,07,27,12,10,28.00
2022,07,27,12,11,28.20
2022,07,27,12,12,28.30
2022,07,27,12,13,28.40
2022,07,27,12,14,28.40
2022,07,27,12,15,28.40
2022,07,27,12,16,28.30
2022,07,27,12,17,28.30
2022,07,27,12,18,28.30
2022,07,27,12,19,28.20
2022,07,27,12,20,28.20
2022,07,27,12,21,28.10
2022,07,27,12,22,28.10
2022,07,27,12,23,28.00
2022,07,27,12,24,27.90
2022,07,27,12,25,27.90
2022,07,27,12,26,27.80
2022,07,27,12,27,27.80
2022,07,27,12,28,27.80
2022,07,27,12,29,27.70
2022,07,27,12,30,27.60
2022,07,27,12,31,27.60
2022,07,27,12,32,27.60
2022,07,27,12,33,27.50
2022,07,27,12,34,27.50
2022,07,27,12,35,27.50
2022,07,27,12,36,27.50
2022,07,27,12,37,27.50
2022,07,27,12,38,27.40
2022,07,27,12,39,27.40
2022,07,27,12,40,27.30
2022,07,27,12,41,27.30
2022,07,27,12,42,27.20
2022,07,27,12,43,27.20
2022,07,27,12,44,27.20
2022,07,27,12,45,27.20
2022,07,27,12,46,27.30
2022,07,27,12,47,27.30
2022,07,27,12,48,27.40
2022,07,27,12,49,27.40
2022,07,27,12,50,27.50
2022,07,27,12,51,27.60
2022,07,27,12,52,27.70
2022,07,27,12,53,27.80
2022,07,27,12,54,27.90
2022,07,27,12,55,28.00
2022,07,27,12,56,28.10
2022,07,27,12,57,28.20
2022,07,27,12,58,28.20
2022,07,27,12,59,28.20
2022,07,27,13,00,28.20
2022,07,27,13,01,28.20
2022,07,27,13,02,28.30
2022,07,27,13,03,28.40
2022,07,27,13,04,28.50
2022,07,27,13,05,28.60
2022,07,27,13,06,28.60
2022,07,27,13,07,28.60
2022,07,27,13,08,28.60
2022,07,27,13,09,28.60
2022,07,27,13,10,28.60
2022,07,27,13,11,28.60
2022,07,27,13,12,28.60
2022,07,27,13,13,28.70
2022,07,27,13,14,28.70
2022,07,27,13,15,28.70
2022,07,27,13,16,28.70
2022,07,27,13,17,28.70
2022,07,27,13,18,28.70
2022,07,27,13,19,28.70
2022,07,27,13,20,28.70
2022,07,27,13,21,28.70
2022,07,27,13,22,28.70
2022,07,27,13,23,28.80
2022,07,27,13,24,28.80
2022,07,27,13,25,28.80
2022,07,27,13,26,28.80
2022,07,27,13,27,28.80
2022,07,27,13,28,28.80
2022,07,27,13,29,28.80
2022,07,27,13,30,28.90
2022,07,27,13,31,28.90
2022,07,27,13,32,28.90
2022,07,27,13,33,28.90
2022,07,27,13,34,29.00
2022,07,27,13,35,29.00
2022,07,27,13,36,29.10
2022,07,27,13,37,29.10
2022,07,27,13,38,29.10
2022,07,27,13,39,29.10
2022,07,27,13,40,29.10
2022,07,27,13,41,29.10
2022,07,27,13,42,29.10
2022,07,27,13,43,29.10
2022,07,27,13,44,29.10
2022,07,27,13,45,29.10
2022,07,27,13,46,29.10
2022,07,27,13,47,29.10
2022,07,27,13,48,29.20
2022,07,27,13,49,29.20
2022,07,27,13,50,29.20
2022,07,27,13,51,29.20
2022,07,27,13,52,29.30
2022,07,27,13,53,29.30
2022,07,27,13,54,29.30
2022,07,27,13,55,29.20
2022,07,27,13,56,29.20
2022,07,27,13,57,29.10
2022,07,27,13,58,29.10
2022,07,27,13,59,29.00
2022,07,27,14,00,29.00
2022,07,27,14,01,29.00
2022,07,27,14,02,29.10
2022,07,27,14,03,29.10
2022,07,27,14,04,29.10
2022,07,27,14,05,29.10
2022,07,27,14,06,29.10
2022,07,27,14,07,29.10
2022,07,27,14,08,29.10
2022,07,27,14,09,29.20
2022,07,27,14,10,29.20
2022,07,27,14,11,29.20
2022,07,27,14,12,29.20
2022,07,27,14,13,29.20
2022,07,27,14,14,29.20
2022,07,27,14,15,29.20
2022,07,27,14,16,29.20
2022,07,27,14,17,29.20
2022,07,27,14,18,29.30
2022,07,27,14,19,29.30
2022,07,27,14,20,29.30
2022,07,27,14,21,29.40
2022,07,27,14,22,29.40
2022,07,27,14,23,29.40
2022,07,27,14,24,29.40
2022,07,27,14,25,29.50
2022,07,27,14,26,29.50
2022,07,27,14,27,29.50
2022,07,27,14,28,29.50
2022,07,27,14,29,29.60
2022,07,27,14,30,29.50
2022,07,27,14,31,29.50
2022,07,27,14,32,29.50
2022,07,27,14,33,29.50
2022,07,27,14,34,29.60
2022,07,27,14,35,29.60
2022,07,27,14,36,29.60
2022,07,27,14,37,29.70
2022,07,27,14,38,29.70
2022,07,27,14,39,29.80
2022,07,27,14,40,29.90
2022,07,27,14,41,30.00
2022,07,27,14,42,30.10
2022,07,27,14,43,30.20
2022,07,27,14,44,30.20
2022,07,27,14,45,30.30
2022,07,27,14,46,30.20
2022,07,27,14,47,30.20
2022,07,27,14,48,30.20
2022,07,27,14,49,30.20
2022,07,27,14,50,30.20
2022,07,27,14,51,30.20
2022,07,27,14,52,30.20
2022,07,27,14,53,30.10
2022,07,27,14,54,30.10
2022,07,27,14,55,30.10
2022,07,27,14,56,30.10
2022,07,27,14,57,30.10
2022,07,27,14,58,30.10
2022,07,27,14,59,30.20
2022,07,27,15,00,30.30
2022,07,27,15,01,30.30
2022,07,27,15,02,30.30
2022,07,27,15,03,30.40
2022,07,27,15,04,30.30
2022,07,27,15,05,30.30
2022,07,27,15,06,30.30
2022,07,27,15,07,30.20
2022,07,27,15,08,30.20
2022,07,27,15,09,30.20
2022,07,27,15,10,30.20
2022,07,27,15,11,30.20
2022,07,27,15,12,30.30
2022,07,27,15,13,30.30
2022,07,27,15,14,30.40
2022,07,27,15,15,30.40
2022,07,27,15,16,30.40
2022,07,27,15,17,30.40
2022,07,27,15,18,30.40
2022,07,27,15,19,30.40
2022,07,27,15,20,30.40
2022,07,27,15,21,30.30
2022,07,27,15,22,30.30
2022,07,27,15,23,30.30
2022,07,27,15,24,30.20
2022,07,27,15,25,30.20
2022,07,27,15,26,30.10
2022,07,27,15,27,30.10
2022,07,27,15,28,30.00
2022,07,27,15,29,29.90
2022,07,27,15,30,29.90
2022,07,27,15,31,29.90
2022,07,27,15,32,30.00
2022,07,27,15,33,30.00
2022,07,27,15,34,30.10
2022,07,27,15,35,30.20
2022,07,27,15,36,30.20
2022,07,27,15,37,30.30
2022,07,27,15,38,30.30
2022,07,27,15,39,30.40
2022,07,27,15,40,30.40
2022,07,27,15,41,30.50
2022,07,27,15,42,30.50
2022,07,27,15,43,30.60
2022,07,27,15,44,30.70
2022,07,27,15,45,30.70
2022,07,27,15,46,30.80
2022,07,27,15,47,30.80
2022,07,27,15,48,30.80
2022,07,27,15,49,30.80
2022,07,27,15,50,30.80
2022,07,27,15,51,30.80
2022,07,27,15,52,30.80
2022,07,27,15,53,30.80
2022,07,27,15,54,30.80
2022,07,27,15,55,30.80
2022,07,27,15,56,30.80
2022,07,27,15,57,30.80
2022,07,27,15,58,30.80
2022,07,27,15,59,30.70
2022,07,27,16,00,30.70
2022,07,27,16,01,30.70
2022,07,27,16,02,30.70
2022,07,27,16,03,30.70
2022,07,27,16,04,30.70
2022,07,27,16,05,30.70
2022,07,27,16,06,30.70
2022,07,27,16,07,30.80
2022,07,27,16,08,30.80
2022,07,27,16,09,30.80
2022,07,27,16,10,30.90
2022,07,27,16,11,30.90
2022,07,27,16,12,30.90
2022,07,27,16,13,31.00
2022,07,27,16,14,31.00
2022,07,27,16,15,31.10
2022,07,27,16,16,31.20
2022,07,27,16,17,31.20
2022,07,27,16,18,31.20
2022,07,27,16,19,31.20
2022,07,27,16,20,31.30
2022,07,27,16,21,31.30
2022,07,27,16,22,31.30
2022,07,27,16,23,31.30
2022,07,27,16,24,31.30
2022,07,27,16,25,31.30
2022,07,27,16,26,31.30
2022,07,27,16,27,31.30
2022,07,27,16,28,31.30
2022,07,27,16,29,31.30
2022,07,27,16,30,31.30
2022,07,27,16,31,31.30
2022,07,27,16,32,31.30
2022,07,27,16,33,31.30
2022,07,27,16,34,31.30
2022,07,27,16,35,31.30
2022,07,27,16,36,31.40
2022,07,27,16,37,31.40
2022,07,27,16,38,31.40
2022,07,27,16,39,31.40
2022,07,27,16,40,31.50
2022,07,27,16,41,31.50
2022,07,27,16,42,31.60
2022,07,27,16,43,31.60
2022,07,27,16,44,31.70
2022,07,27,16,45,31.70
2022,07,27,16,46,31.70
2022,07,27,16,47,31.80
2022,07,27,16,48,31.80
2022,07,27,16,49,31.80
2022,07,27,16,50,31.80
2022,07,27,16,51,31.80
2022,07,27,16,52,31.80
2022,07,27,16,53,31.80
2022,07,27,16,54,31.80
2022,07,27,16,55,31.80
2022,07,27,16,56,31.80
2022,07,27,16,57,31.80
2022,07,27,16,58,31.80
2022,07,27,16,59,31.80
2022,07,27,17,00,31.70
2022,07,27,17,01,31.70
2022,07,27,17,02,31.70
2022,07,27,17,03,31.70
2022,07,27,17,04,31.70
2022,07,27,17,05,31.70
2022,07,27,17,06,31.70
2022,07,27,17,07,31.70
2022,07,27,17,08,31.70
2022,07,27,17,09,31.70
2022,07,27,17,10,31.70
2022,07,27,17,11,31.70
2022,07,27,17,12,31.70
2022,07,27,17,13,31.60
2022,07,27,17,14,31.60
2022,07,27,17,15,31.60
2022,07,27,17,16,31.50
2022,07,27,17,17,31.50
2022,07,27,17,18,31.40
2022,07,27,17,19,31.40